Overview Statistics Trail Chart Weather Telemetry Raw packets
 

This is the latest recevied weather packets stored in our database for station/object KN6WGU. If no packets are shown the sender has not sent any weather packets the latest 10 day(s).

<< 41 42 43 44 45 46 47 >>
Time Temp. Humidity Pressure Rain* Wind** Luminosity Snow
1788356832 28.33° C 78% 1009.6 hPa 0 mm - 70 W/m² -
1788356529 28.33° C 78% 1009.3 hPa 0 mm - 69 W/m² -
1788356229 28.33° C 78% 1009.4 hPa 0 mm - 68 W/m² -
1788355928 28.33° C 78% 1009.4 hPa 0 mm - 68 W/m² -
1788355623 27.78° C 79% 1009.4 hPa 0 mm - 66 W/m² -
1788355319 27.78° C 79% 1009.1 hPa 0 mm - 65 W/m² -
1788355014 27.78° C 80% 1009.3 hPa 0 mm - 64 W/m² -
1788354710 27.78° C 80% 1009.3 hPa 0 mm - 63 W/m² -
1788354405 27.78° C 81% 1009.2 hPa 0 mm - 62 W/m² -
1788354101 27.22° C 82% 1009.1 hPa 0 mm - 60 W/m² -
1788353796 27.22° C 82% 1009.2 hPa 0 mm - 57 W/m² -
1788353491 27.22° C 82% 1009.2 hPa 0 mm - 56 W/m² -
1788353188 26.67° C 83% 1009.1 hPa 0 mm - 55 W/m² -
1788352888 26.67° C 83% 1009.3 hPa 0 mm - 53 W/m² -
1788352584 26.67° C 84% 1009.3 hPa 0 mm - 50 W/m² -
1788352279 26.67° C 84% 1009.1 hPa 0 mm - 49 W/m² -
1788351978 26.67° C 84% 1009.2 hPa 0 mm - 47 W/m² -
1788351674 26.67° C 84% 1009.2 hPa 0 mm - 59 W/m² -
1788351374 26.11° C 85% 1009.4 hPa 0 mm - 61 W/m² -
1788351069 26.11° C 85% 1009.3 hPa 0 mm - 66 W/m² -
1788350765 25.56° C 86% 1009.2 hPa 0 mm - 58 W/m² -
1788350476 25.56° C 87% 1009.1 hPa 0 mm - 39 W/m² -
1788350156 25.56° C 88% 1009.3 hPa 0 mm - 31 W/m² -
1788349852 25.56° C 88% 1009.2 hPa 0 mm - 28 W/m² -
1788349548 25.56° C 88% 1009.3 hPa 0 mm - 25 W/m² -

* Rain latest hour (hover to see other rain measurements)
** Current wind speed in m/s (hover to see current wind gust speed)